Weather History for Guatemala Aeropuertola Aurora, Guatemala

Change the Weather History Date:

Wednesday, January 22, 2014

  Actual Average Record
Temperature  
Mean Temperature 62 °F -  
Max Temperature 69 °F 73 °F - ()
Min Temperature 55 °F 55 °F - ()
Degree Days  
Heating Degree Days 3    
Growing Degree Days 12 (Base 50)    
Moisture  
Dew Point 53 °F    
Average Humidity 78    
Maximum Humidity 94    
Minimum Humidity 51    
Precipitation  
Precipitation 0.00 in - - ()
Sea Level Pressure  
Sea Level Pressure 30.29 in    
Wind  
Wind Speed 14 mph ()    
Max Wind Speed 21 mph    
Max Gust Speed -    
Visibility 6.2 miles    
Events Rain    
T = Trace of Precipitation, MM = Missing Value Source: Averaged Metar Reports

Daily Weather History Graph

Daily Weather History Graph

Search for Another Location

Airport:

Trip Planner

Search our weather history database for the weather conditions in past years. The results will help you decide how hot, cold, wet, or windy it might be!

Date:

Astronomy

Jan. 22, 2014 Rise Set
Actual Time 6:31 AM CST 5:56 PM CST
Civil Twilight 6:08 AM CST 6:18 PM CST
Nautical Twilight 5:42 AM CST 6:45 PM CST
Astronomical Twilight 5:16 AM CST 7:10 PM CST
Moon 11:19 PM CST (1/22) 10:37 AM CST (1/22)
Length of Visible Light 12h 10m
Length of Day
11h 25m
Waning Gibbous, 65% of the Moon is Illuminated
Jan 22
Waning Gibbous
Jan 23
Last Quarter
Jan 30
New
Feb 6
First Quarter
Feb 14
Full

Hourly Weather History & Observations

Time (CST) Temp. Dew Point Humidity Pressure Visibility Wind Dir Wind Speed Gust Speed Precip Events Conditions
12:00 AM 57.2 °F 53.6 °F 88% 30.33 in 6.2 mi North 16.1 mph - N/A   Scattered Clouds
1:00 AM 57.2 °F 53.6 °F 88% 30.33 in 6.2 mi North 20.7 mph - N/A   Mostly Cloudy
2:00 AM 57.2 °F 55.4 °F 94% 30.30 in 6.2 mi North 16.1 mph - N/A   Mostly Cloudy
3:00 AM 57.2 °F 55.4 °F 94% 30.27 in 6.2 mi North 13.8 mph - N/A   Mostly Cloudy
4:00 AM 55.4 °F 53.6 °F 94% 30.27 in 6.2 mi NNE 13.8 mph - N/A   Mostly Cloudy
5:00 AM 55.4 °F 53.6 °F 94% 30.27 in 6.2 mi NNE 13.8 mph - N/A   Scattered Clouds
6:00 AM 56 °F 54 °F 90% 30.04 in 25 mi North 11.5 mph - - Rain Light Drizzle
6:00 AM 55.4 °F 53.6 °F 94% 30.30 in 6.2 mi North 11.5 mph - N/A   Light Drizzle
6:30 AM - - N/A% - 6.2 mi NNE 9.2 mph - N/A   Scattered Clouds
7:00 AM 55.4 °F 53.6 °F 94% 30.30 in 6.2 mi NNE 13.8 mph - N/A   Scattered Clouds
8:00 AM 57.2 °F 53.6 °F 88% 30.33 in 6.2 mi North 11.5 mph - N/A   Scattered Clouds
9:00 AM 60.8 °F 53.6 °F 77% 30.36 in 6.2 mi North 18.4 mph - N/A   Scattered Clouds
10:00 AM 62.6 °F 51.8 °F 68% 30.36 in 6.2 mi North 18.4 mph - N/A   Scattered Clouds
10:35 AM - - N/A% - 6.2 mi NNE 18.4 mph - N/A   Mostly Cloudy
11:00 AM 62.6 °F 51.8 °F 68% 30.36 in 6.2 mi North 20.7 mph - N/A   Mostly Cloudy
12:00 PM 65 °F 51 °F 51% 30.07 in 25 mi North 18.4 mph - -   Partly Cloudy
12:00 PM 64.4 °F 51.8 °F 64% 30.33 in 6.2 mi North 18.4 mph - N/A   Scattered Clouds
1:00 PM 66.2 °F 53.6 °F 64% 30.30 in 6.2 mi North 18.4 mph - N/A   Mostly Cloudy
2:00 PM 68.0 °F 51.8 °F 56% 30.27 in 6.2 mi NNE 16.1 mph - N/A   Scattered Clouds
3:00 PM 69.8 °F 53.6 °F 56% 30.27 in 6.2 mi NNE 18.4 mph - N/A   Mostly Cloudy
4:00 PM 66.2 °F 53.6 °F 64% 30.27 in 6.2 mi North 16.1 mph - N/A   Mostly Cloudy
5:00 PM 64.4 °F 50.0 °F 59% 30.27 in 6.2 mi North 16.1 mph - N/A   Partly Cloudy
6:00 PM 62.6 °F 51.8 °F 68% 30.27 in 6.2 mi North 18.4 mph - N/A   Partly Cloudy
7:00 PM 59.0 °F 53.6 °F 82% 30.30 in 6.2 mi North 16.1 mph - N/A   Partly Cloudy
8:00 PM 57.2 °F 51.8 °F 82% 30.33 in 6.2 mi North 16.1 mph - N/A   Partly Cloudy
9:00 PM 57.2 °F 53.6 °F 88% 30.36 in 6.2 mi North 13.8 mph - N/A   Partly Cloudy
10:00 PM 57.2 °F 53.6 °F 88% 30.36 in 6.2 mi North 11.5 mph - N/A   Scattered Clouds
11:00 PM 57.2 °F 53.6 °F 88% 30.36 in 6.2 mi North 13.8 mph - N/A   Mostly Cloudy